Zurück zum Katalog

STARLINK-36886

AktivKommunikationVLEO
NORAD 68175·PAYLOAD·🇺🇸 United States

Gestartet Mar 14, 2026 von Vandenberg Space Force Base

Loading…

Nächste Überflüge (nächste 24 Stunden)

TLE

AktuellSource: CelesTrak SupGP

Epoche: Sep 15, 2026, 03:33 UTC

1 68175C 26050J   26258.14840278 -.00007059  00000+0 -20859-3 0  2584
2 68175  53.1574 102.5528 0001214  82.6186 110.1251 15.34389827    18

Verfolge STARLINK-36886 in Echtzeit mit AllMySat

Download on the App Store